Powrót do katalogu

SL-8 R/B

AktywnyLEO
NORAD 3131·ROCKET BODY·🇷🇺 Russia

Wystrzelony Feb 20, 1968 z Plesetsk Cosmodrome

Loading…

Następne Przeloty (najbliższe 24 godziny)

TLE

ŚwieżeSource: Space-Track

Epoka: Sep 14, 2026, 05:10 UTC

1 03131U 68011B   26257.21534249  .00000220  00000-0  61137-3 0  9991
2 03131  74.0541 338.8633 0014081 167.9408 192.2021 13.18038159817084

Śledź SL-8 R/B w czasie rzeczywistym z AllMySat

Download on the App Store